Tracking 18987 objects as of 25-Feb-2018
HD Live streaming from Space Station
objects crossing your sky now

ARIANE 42L R/B

Track ARIANE 42L R/B now!


NORAD ID: 27299
Int'l Code: 2002-002B
Perigee: 446.8 km
Apogee: 36,593.6 km
Inclination: 3.7 °
Period: 651.4 minutes
Semi major axis: 24891 km
RCS: 20.2044 m2 (large)
Launch date: January 23, 2002
Source: France (FR)
Launch site: FRENCH GUIANA (FRGUI)

Note: This is a ROCKET BODY
aabbcc
Your satellite tracking list
Your tracking list is empty




NASA's NSSDC Master Catalog

Two Line Element Set (TLE):
1 27299U 02002B   18054.18328011 -.00000221 +00000-0 -72487-4 0  9994
2 27299 003.6823 180.4505 7260965 323.8686 004.1187 02.21072332129518
Source of the keplerian elements: AFSPC